Regional Weather Roundup
Issued by NWS

Home | Current Version | Previous Version | Graphics & Text | Print | Product List | Glossary On
Versions: 1 2 3 4 5 6 7 8 9 10 11 12 13 14 15 16 17 18 19 20 21 22 23 24 25 26 27 28 29 30 31 32 33 34 35 36 37 38 39 40 41 42 43 44 45 46 47 48 49
000
ASUS45 KBOU 221307
RWRCO

WEATHER ROUNDUP FOR COLORADO
NATIONAL WEATHER SERVICE DENVER/BOULDER CO
600 AM MST SAT NOV 22 2014

NOTE: "FAIR" INDICATES FEW OR NO CLOUDS BELOW 12000 FEET WITH NO
SIGNIFICANT WEATHER AND/OR OBSTRUCTIONS TO VISIBILITY.

COZ001>005-013-030-031-221400-
...NORTHWEST COLORADO...

CITY           SKY/WX    TMP DP  RH WIND       PRES   REMARKS
CRAIG          PTCLDY    20  16  84 CALM      29.99F
HAYDEN         MOCLDY    21  14  73 E9        29.98F WCI  11
MEEKER         PTCLDY    37  18  46 VRB6      30.00S
MOUNT WERNER   NOT AVBL
STEAMBOAT SPGS PTCLDY    14  11  87 E3        30.01F
WALDEN         CLOUDY    32  14  47 S16G25    29.95F WCI  21
$$

COZ006>008-011-221400-
...WEST CENTRAL VALLEYS...

CITY           SKY/WX    TMP DP  RH WIND       PRES   REMARKS
GRAND JUNCTION CLEAR     22  15  75 E3        30.07F
MONTROSE       CLEAR     20  15  81 SE7       30.11S WCI  11
EAGLE          CLEAR     18  16  93 CALM      30.11S
RIFLE          CLEAR     20  15  81 CALM      30.09F
DELTA          CLEAR     22  17  81 CALM      30.10F
NUCLA          CLEAR     27  21  80 CALM      30.13S
$$

COZ017>023-064>068-221400-
...SOUTHWEST COLORADO...

CITY           SKY/WX    TMP DP  RH WIND       PRES   REMARKS
DURANGO        CLEAR     20  16  84 CALM      30.10F
CORTEZ         CLEAR     18  15  88 CALM      30.12R
PAGOSA SPRINGS CLEAR     21  17  84 CALM      30.12S
TELLURIDE      PTCLDY    25  16  69 SE6       30.15S WCI  18
WOLF CREEK PAS NOT AVBL
$$

COZ009-010-012-014-032>034-037-058>063-221400-
...CENTRAL COLORADO...

CITY           SKY/WX    TMP DP  RH WIND       PRES   REMARKS
ASPEN          CLEAR     18   9  68 S8        30.07S WCI   8
BUENA VISTA    CLEAR     17  11  77 CALM      30.02F
COPPER MTN     PTCLDY    23   5  46 SW16G25   30.07S WCI  10
BERTHOUD PASS  FAIR      12   9  85 NW33G45   30.00S WCI -10
COTTONWOOD PAS CLEAR     32  10  40 W12G26    30.02F WCI  23
GUNNISON       PTCLDY     7   0  72 N3        30.19S
KREMMLING      MOCLDY    12   9  85 CALM      30.07F
LEADVILLE      PTCLDY    18   6  59 N9        30.04F WCI   7
SALIDA         CLEAR     36  15  41 SW16      30.09S
SUNLIGHT       CLEAR     23  18  80 CALM      30.09S
WILKERSON PASS PTCLDY    18  10  73 SW20G29   30.00S WCI   1
$$

COZ069>075-221400-
...SAN LUIS VALLEY/SANGRE DE CRISTO MOUNTAINS...

CITY           SKY/WX    TMP DP  RH WIND       PRES   REMARKS
ALAMOSA        MOCLDY     5   0  79 CALM      30.11R
LA VETA PASS   PTCLDY    21  14  73 S16G32    30.01F WCI   7
SAGUACHE       PTCLDY    21  12  68 N8        30.10S WCI  12
$$

COZ035-036-038>040-221400-
...NORTHERN COLORADO FRONT RANGE...

CITY           SKY/WX    TMP DP  RH WIND       PRES   REMARKS
DENVER INTL AP CLEAR     40  16  37 S20       29.79F
DMNS CITY PARK   N/A     41  12  29 S8G14     29.80F
AURORA         PTCLDY    40  15  35 S17       29.82F
FRONT RANGE AP NOT AVBL
ERIE MUNI ARPT PTCLDY    34  17  48 S5        29.77F WCI  30
BOULDER MUN AP PTCLDY    34  18  51 NW5       29.76F WCI  30
CENTENNIAL     PTCLDY    41  14  33 S14       29.82F
BROOMFIELD     PTCLDY    41  12  30 CALM      29.79F
FORT COLLINS   PTCLDY    27  19  74 NE7       29.79F WCI  19
LONGMONT       PTCLDY    37  20  49 NW7       29.79S
$$

COZ041-046-047-076>085-087-088-221400-
...PIKES PEAK/PALMER DIVIDE AND SOUTHERN FOOTHILLS...

CITY           SKY/WX    TMP DP  RH WIND       PRES   REMARKS
COLO. SPRINGS  CLEAR     28  17  63 E8        29.89F WCI  20
A. F. ACADEMY  CLEAR     28  13  53 N3        29.88F
ELLICOTT       CLEAR     34  17  50 SW12      29.88F WCI  25
FALCON         NOT AVBL
FORT CARSON    CLEAR     27  17  63 N6        29.87F WCI  21
LIMON          PTCLDY    36  19  50 SW7       29.86F
MONUMENT HILL  CLEAR     36  10  35 SW13      29.87F
TRINIDAD       PTCLDY    29  16  58 W13       29.95F WCI  19
$$

COZ042>045-048>051-090-091-221400-
...NORTHEAST COLORADO...

CITY           SKY/WX    TMP DP  RH WIND       PRES   REMARKS
GREELEY ARPT   PTCLDY    19  10  68 CALM      29.81S
AKRON          PTCLDY    41  20  43 SW16      29.80F
BURLINGTON     CLEAR     33  19  56 SW7       29.86F WCI  27
WRAY           CLEAR     33  21  60 MISG      29.82F
STERLING       PTCLDY    21  19  93 W5        29.80F WCI  15
HOLYOKE        CLEAR     27  19  74 W9        29.80F WCI  17
FORT MORGAN    PTCLDY    26  20  76 W7        29.80F WCI  19
$$

COZ086-089-092>099-221400-
...SOUTHEAST COLORADO...

CITY           SKY/WX    TMP DP  RH WIND       PRES   REMARKS
PUEBLO         CLEAR     26  20  77 CALM      29.90F
LA JUNTA       CLEAR     30  24  78 W8        29.90F WCI  22
LAMAR          CLEAR     24  23  96 SW8       29.90F WCI  15
SPRINGFIELD      N/A     30  23  75 W6        29.90S WCI  24
$$


USA.gov is the U.S. government's official web portal to all federal, state and local government web resources and services.